Location: Wyoming Infrared Observatory
(41.0971°N, 105.9765°W)
Time: 09:19:46
(UTC-06:00)

Amateur Radio Satellites - All Passes

Search period start: 04 July 2015 08:49
Search period end: 05 July 2015 08:49
Location: Wyoming Infrared Observatory, 41.0971°N, 105.9765°W

Satellite Date Start Highest point End Downlink Frequencies (MHz)
Time Altitude Azimuth
CUTE 1.7 + AOD 2 04 Jul 08:55:52 08:59:06 21° 93° (E) 09:02:27 437.475
ISS 04 Jul 08:55:58 08:59:12 84° 320° (NW) 09:02:28 145.825
BEESAT 2 04 Jul 08:56:59 09:00:35 28° 312° (NW) 09:04:11 435.950
CANX-2 04 Jul 08:58:56 09:02:30 25° 94° (E) 09:06:07 2200.000
DANDE 04 Jul 09:08:07 09:15:23 60° 281° (W) 09:20:57 436.750
CINEMA 3 04 Jul 09:09:23 09:11:35 14° 90° (E) 09:14:00 145.822/145.860
GOMX 1 04 Jul 09:12:29 09:16:39 59° 100° (E) 09:20:45 467.674
M-CUBED/EXP-1 PRIME 04 Jul 09:12:43 09:15:40 30° 258° (WSW) 09:18:42 437.505
VERMONT LUNAR 04 Jul 09:23:32 09:26:38 67° 170° (S) 09:29:46 437.305
ANTELSAT 04 Jul 09:31:12 09:32:44 12° 64° (ENE) 09:34:27 437.575/2403.000
BRITE-PL 04 Jul 09:36:01 09:40:08 42° 288° (WNW) 09:44:04 437.365/2234.400
PHONESAT 2.4 04 Jul 09:37:27 09:40:30 30° 157° (SSE) 09:43:35 2401.200-2431.200
TIGRISAT 04 Jul 09:42:41 09:45:07 15° 66° (ENE) 09:47:41 435.000
GONETS M04 04 Jul 09:42:46 09:51:34 85° 96° (E) 10:00:22
SEEDS 04 Jul 09:43:53 09:48:07 60° 100° (E) 09:52:19 437.485
CUSAT 1 04 Jul 09:51:51 09:56:08 18° 288° (WNW) 09:59:34 437.405
AAUSAT CUBESAT 2 04 Jul 09:55:39 09:59:47 54° 99° (E) 10:03:55 437.432
DOVE 4 04 Jul 09:57:46 10:01:55 68° 285° (WNW) 10:06:03 437.250
CUBEBUG 2 04 Jul 09:58:30 10:01:55 24° 94° (E) 10:05:28 437.445
ZACube-1 04 Jul 10:02:24 10:05:02 16° 91° (E) 10:07:51 437.345
POLYITAN 1 04 Jul 10:02:57 10:04:02 11° 64° (ENE) 10:05:21 437.675
Cosmos 2499 04 Jul 10:06:49 10:11:48 22° 84° (E) 10:17:04 435.465 / 435.565
HO-68 04 Jul 10:08:46 10:15:58 83° 287° (WNW) 10:23:08 435.675
Oscar 11 04 Jul 10:10:51 10:14:50 35° 97° (E) 10:18:51 145.826/435.025
DELFI C3 04 Jul 10:13:18 10:16:41 25° 95° (E) 10:20:06 145.870
AIST 2 04 Jul 10:14:31 10:17:48 21° 316° (NW) 10:21:02 435.215
RS-15 04 Jul 10:18:17 10:29:01 42° 39° (NE) 10:40:19 29.354- 29.394
UNISAT 6 04 Jul 10:20:33 10:24:33 40° 72° (ENE) 10:28:34 437.425
COMPASS 1 04 Jul 10:21:34 10:25:46 64° 285° (WNW) 10:29:56 437.405
HUMSAT D 04 Jul 10:24:09 10:25:32 12° 89° (E) 10:27:08 437.325/437.525
QB50P2 04 Jul 10:30:19 10:33:34 22° 68° (ENE) 10:36:53 145.880/145.840
POPSAT HIP 1 04 Jul 10:31:08 10:34:20 22° 68° (ENE) 10:37:39 437.405
CUTE 1.7 + AOD 2 04 Jul 10:31:15 10:35:06 33° 289° (WNW) 10:38:55 437.475
ISS 04 Jul 10:33:37 10:36:01 19° 343° (NNW) 10:38:24 145.825
CANX-2 04 Jul 10:34:44 10:38:24 27° 290° (WNW) 10:42:01 2200.000
FUNcube-1 04 Jul 10:37:39 10:41:37 39° 98° (E) 10:45:40 145.935
CINEMA 3 04 Jul 10:45:07 10:49:06 45° 287° (WNW) 10:53:09 145.822/145.860
UWE-3 04 Jul 10:49:28 10:53:41 74° 102° (ESE) 10:57:59 435.000/436.395/437.385
GOMX 1 04 Jul 10:52:42 10:54:20 12° 296° (WNW) 10:55:46 467.674
VERMONT LUNAR 04 Jul 11:00:23 11:03:31 75° 188° (S) 11:06:40 437.305
ANTELSAT 04 Jul 11:04:47 11:09:03 64° 259° (W) 11:13:18 437.575/2403.000
QB50P1 04 Jul 11:09:05 11:13:15 57° 74° (ENE) 11:17:25 145.935-145.965
VELOX 1 04 Jul 11:13:24 11:16:29 19° 92° (E) 11:19:41 145.980
PHONESAT 2.4 04 Jul 11:14:52 11:18:19 76° 173° (S) 11:21:46 2401.200-2431.200
TIGRISAT 04 Jul 11:17:23 11:21:33 47° 261° (W) 11:25:40 435.000
SEEDS 04 Jul 11:21:27 11:23:27 13° 295° (WNW) 11:25:16 437.485
DX 1 04 Jul 11:22:44 11:26:53 43° 99° (E) 11:31:01 434.975-435.025
NANOSAT C BR1 04 Jul 11:23:17 11:27:31 83° 78° (ENE) 11:31:47 145.865
DUCHIFAT 1 04 Jul 11:30:17 11:34:32 85° 257° (WSW) 11:38:47 145.980
AAUSAT CUBESAT 2 04 Jul 11:32:47 11:34:59 14° 295° (WNW) 11:37:01 437.432
CUBEBUG 2 04 Jul 11:35:00 11:38:37 28° 290° (WNW) 11:42:13 437.445
POLYITAN 1 04 Jul 11:35:12 11:39:26 70° 258° (WSW) 11:43:40 437.675
ZACube-1 04 Jul 11:37:39 11:41:38 41° 287° (WNW) 11:45:39 437.345
GONETS M04 04 Jul 11:43:18 11:49:44 21° 299° (WNW) 11:55:45
UKube-1 04 Jul 11:43:47 11:48:07 69° 102° (ESE) 11:52:24 .
Oscar 11 04 Jul 11:47:31 11:50:49 21° 292° (WNW) 11:54:02 145.826/435.025
BUGSAT 1 04 Jul 11:47:55 11:52:09 80° 257° (WSW) 11:56:23 437.445
DELFI C3 04 Jul 11:48:19 11:51:42 25° 290° (WNW) 11:55:00 145.870
50 SAT 04 Jul 11:53:56 11:57:50 65° 101° (ESE) 12:01:43 437.505
Cosmos 2499 04 Jul 11:57:24 12:04:22 61° 282° (WNW) 12:11:26 435.465 / 435.565
HUMSAT D 04 Jul 11:57:35 12:01:41 57° 285° (WNW) 12:05:48 437.325/437.525
HO-68 04 Jul 11:58:23 12:02:47 17° 305° (NW) 12:06:51 435.675
UNISAT 6 04 Jul 11:58:39 12:01:33 17° 268° (W) 12:04:19 437.425
AISAT 04 Jul 11:59:31 12:03:54 63° 101° (E) 12:08:15 437.250
QB50P2 04 Jul 12:05:29 12:09:18 31° 264° (W) 12:13:06 145.880/145.840
POPSAT HIP 1 04 Jul 12:06:14 12:10:04 32° 264° (W) 12:13:52 437.405
ISS 04 Jul 12:11:44 12:13:21 13° 3° (N) 12:14:59 145.825
FUNcube-1 04 Jul 12:14:47 12:17:42 18° 293° (WNW) 12:20:32 145.935
CUBEBUG 1 04 Jul 12:17:53 12:22:10 53° 100° (E) 12:26:24 437.445
TISAT 1 04 Jul 12:28:35 12:30:09 12° 89° (E) 12:31:57 437.305
UWE-3 04 Jul 12:28:54 12:29:44 10° 296° (WNW) 12:30:20 435.000/436.395/437.385
RS-15 04 Jul 12:30:45 12:42:24 69° 243° (WSW) 12:54:24 29.354- 29.394
ESTCUBE 1 04 Jul 12:31:02 12:35:37 88° 103° (ESE) 12:40:08 437.505/2401.250
VERMONT LUNAR 04 Jul 12:37:26 12:40:14 29° 203° (SSW) 12:43:03 437.305
QB50P1 04 Jul 12:47:47 12:49:32 12° 271° (W) 12:51:05 145.935-145.965
VELOX 1 04 Jul 12:49:06 12:53:14 39° 289° (WNW) 12:57:18 145.980
PHONESAT 2.4 04 Jul 12:52:51 12:56:18 70° 190° (S) 12:59:45 2401.200-2431.200
DX 1 04 Jul 12:59:52 13:02:50 18° 294° (WNW) 13:05:38 434.975-435.025
SPROUT 04 Jul 13:20:12 13:24:29 76° 102° (ESE) 13:28:45 437.525
YUBILEINY 04 Jul 13:21:52 13:27:53 21° 61° (ENE) 13:34:20 435.215
UKube-1 04 Jul 13:22:05 13:23:43 12° 297° (WNW) 13:25:08 .
Oscar 19 04 Jul 13:22:13 13:27:14 57° 73° (ENE) 13:32:17 437.125/150
Gurwin Techsat 1B 04 Jul 13:28:38 13:32:23 21° 64° (ENE) 13:36:18 435.225
50 SAT 04 Jul 13:31:24 13:31:59 10° 295° (WNW) 13:32:20 437.505
ITAMSAT 1 04 Jul 13:34:54 13:38:48 22° 65° (ENE) 13:42:51 435.822/435.867
AISAT 04 Jul 13:37:53 13:40:00 13° 297° (WNW) 13:41:56 437.250
ISS 04 Jul 13:47:51 13:50:36 25° 23° (NNE) 13:53:22 145.825
Cosmos 2491 04 Jul 13:48:12 13:50:48 12° 76° (ENE) 13:54:10 435.465 / 435.565
CUBEBUG 1 04 Jul 13:55:36 13:58:07 15° 295° (WNW) 14:00:27 437.445
TISAT 1 04 Jul 14:02:14 14:06:20 54° 287° (WNW) 14:10:25 437.305
BEESAT 04 Jul 14:26:10 14:30:41 40° 98° (E) 14:35:11 436.000
PHONESAT 2.4 04 Jul 14:31:06 14:34:03 26° 205° (SSW) 14:37:00 2401.200-2431.200
SWISSCUBE 04 Jul 14:41:35 14:46:23 63° 101° (ESE) 14:51:08 437.505
RS-15 04 Jul 14:46:52 14:53:09 15° 261° (W) 14:58:26 29.354- 29.394
ITUPSAT 1 04 Jul 14:46:53 14:51:42 64° 102° (ESE) 14:56:28 437.325
AO-7 04 Jul 14:49:55 14:56:59 33° 59° (ENE) 15:04:15 29.400- 29.500
SPROUT 04 Jul 14:59:14 15:00:01 10° 297° (WNW) 15:00:35 437.525
Oscar 19 04 Jul 15:03:38 15:07:02 17° 270° (W) 15:10:13 437.125/150
Gurwin Techsat 1B 04 Jul 15:06:49 15:12:00 54° 260° (W) 15:17:14 435.225
AIST 1 04 Jul 15:07:20 15:10:12 18° 87° (E) 15:13:11
ITAMSAT 1 04 Jul 15:13:00 15:18:01 47° 261° (W) 15:23:05 435.822/435.867
YUBILEINY 04 Jul 15:17:14 15:26:02 84° 263° (W) 15:34:49 435.215
JAS-2 04 Jul 15:23:11 15:28:12 54° 72° (ENE) 15:33:28 435.910
Cosmos 2504 04 Jul 15:23:22 15:24:28 10° 57° (ENE) 15:26:11 435.465 / 435.565
ISS 04 Jul 15:24:00 15:27:10 50° 220° (SW) 15:30:18 145.825
BEESAT 3 04 Jul 15:26:01 15:28:58 19° 44° (NE) 15:31:58 437.485
Cosmos 2491 04 Jul 15:37:31 15:46:15 70° 93° (E) 15:55:00 435.465 / 435.565
BEESAT 2 04 Jul 15:38:11 15:41:15 20° 44° (NE) 15:44:21 435.950
HORYU 2 04 Jul 15:39:16 15:43:29 47° 72° (ENE) 15:47:45 437.375
KKS-1 04 Jul 15:40:15 15:44:25 40° 98° (E) 15:48:36 437.445
PCSat 04 Jul 16:00:47 16:06:06 64° 115° (ESE) 16:11:29 145.827
BEESAT 04 Jul 16:04:32 16:08:18 23° 294° (WNW) 16:11:57 436.000
SWISSCUBE 04 Jul 16:20:56 16:23:46 15° 297° (WNW) 16:26:24 437.505
ITUPSAT 1 04 Jul 16:26:18 16:29:07 15° 297° (WNW) 16:31:43 437.325
STARS 04 Jul 16:32:01 16:36:25 90° 358° (N) 16:40:48 437.465
SO-50 04 Jul 16:39:27 16:43:41 34° 115° (ESE) 16:48:05 436.795
AO-7 04 Jul 16:41:11 16:49:25 60° 257° (WSW) 16:57:40 29.400- 29.500
AIST 1 04 Jul 16:43:26 16:47:33 38° 283° (WNW) 16:51:42
O/OREOS (USA 219) 04 Jul 16:44:20 16:47:50 22° 56° (ENE) 16:51:26 437.305
Cubesat XI-IV 04 Jul 16:48:33 16:48:51 10° 58° (ENE) 16:49:28 437.490
AIST 2 04 Jul 16:56:48 17:00:35 31° 49° (NE) 17:04:19 435.215
BEESAT 3 04 Jul 17:03:17 17:07:10 45° 243° (WSW) 17:10:59 437.485
JAS-2 04 Jul 17:10:34 17:13:56 17° 271° (W) 17:17:08 435.910
Cosmos 2504 04 Jul 17:10:59 17:18:25 63° 79° (E) 17:26:25 435.465 / 435.565
BEESAT 2 04 Jul 17:15:39 17:19:32 42° 243° (WSW) 17:23:20 435.950
YUBILEINY 04 Jul 17:16:39 17:21:41 16° 282° (WNW) 17:26:11 435.215
KKS-1 04 Jul 17:17:35 17:20:49 20° 294° (WNW) 17:23:55 437.445
HORYU 2 04 Jul 17:17:39 17:20:26 16° 269° (W) 17:23:03 437.375
MOZHAYETS 4 04 Jul 17:34:28 17:39:08 72° 101° (ESE) 17:43:46
Cosmos 2491 04 Jul 17:36:48 17:44:01 26° 295° (WNW) 17:50:57 435.465 / 435.565
PCSat 04 Jul 17:45:50 17:50:01 22° 315° (NW) 17:54:08 145.827
CUTE-I 04 Jul 17:49:08 17:53:57 36° 69° (ENE) 17:58:52 437.470
CUBESAT XI-V 04 Jul 18:03:50 18:05:22 12° 87° (E) 18:07:10 437.345
SO-50 04 Jul 18:19:58 18:24:15 32° 313° (NW) 18:28:37 436.795
Cubesat XI-IV 04 Jul 18:22:46 18:28:07 72° 74° (ENE) 18:33:30 437.490
O/OREOS (USA 219) 04 Jul 18:23:13 18:27:25 38° 254° (WSW) 18:31:36 437.305
AIST 2 04 Jul 18:35:32 18:39:03 26° 246° (WSW) 18:42:28 435.215
CUSAT 1 04 Jul 18:46:03 18:47:57 18° 72° (ENE) 18:49:53 437.405
HO-68 04 Jul 18:53:34 18:57:03 15° 53° (NE) 19:00:53 435.675
STRAND 1 04 Jul 19:01:40 19:04:52 17° 90° (E) 19:08:17 437.568
Cosmos 2504 04 Jul 19:04:14 19:10:12 25° 275° (W) 19:16:12 435.465 / 435.565
BRITE-PL 04 Jul 19:08:20 19:12:34 24° 68° (ENE) 19:16:42 437.365/2234.400
MOZHAYETS 4 04 Jul 19:13:40 19:15:49 13° 297° (WNW) 19:17:45
DOVE 4 04 Jul 19:28:13 19:30:11 13° 65° (ENE) 19:32:21 437.250
CUTE-I 04 Jul 19:29:25 19:34:06 29° 265° (W) 19:38:44 437.470
CUBESAT XI-V 04 Jul 19:38:43 19:43:24 69° 284° (WNW) 19:48:01 437.345
PRISM 04 Jul 19:46:49 19:50:48 41° 99° (E) 19:54:47 437.425
CUTE 1.7 + AOD 2 04 Jul 19:49:33 19:52:02 16° 66° (ENE) 19:54:41 437.475
DANDE 04 Jul 19:51:09 19:53:56 59° 262° (W) 19:56:28 436.750
CANX-2 04 Jul 19:52:29 19:55:23 19° 68° (ENE) 19:58:25 2200.000
GONETS M04 04 Jul 19:53:28 20:01:33 42° 72° (ENE) 20:09:42
Cubesat XI-IV 04 Jul 20:05:56 20:08:52 14° 272° (W) 20:11:31 437.490
CINEMA 3 04 Jul 20:11:33 20:14:01 15° 67° (ENE) 20:16:37 145.822/145.860
GOMX 1 04 Jul 20:19:39 20:24:46 68° 76° (ENE) 20:29:36 467.674
SEEDS 04 Jul 20:35:50 20:39:43 40° 72° (ENE) 20:43:40 437.485
HO-68 04 Jul 20:36:38 20:43:44 74° 72° (ENE) 20:50:54 435.675
STRAND 1 04 Jul 20:39:28 20:44:31 57° 288° (WNW) 20:49:32 437.568
BRITE-PL 04 Jul 20:45:37 20:50:52 45° 262° (W) 20:55:49 437.365/2234.400
AAUSAT CUBESAT 2 04 Jul 20:46:21 20:50:07 35° 72° (ENE) 20:53:56 437.432
M-CUBED/EXP-1 PRIME 04 Jul 20:53:08 20:55:45 16° 97° (E) 20:58:38 437.505
CUBEBUG 2 04 Jul 20:57:14 21:00:24 21° 69° (ENE) 21:03:38 437.445
ZACube-1 04 Jul 20:59:27 21:01:27 14° 66° (ENE) 21:03:38 437.345
DELFI C3 04 Jul 21:01:21 21:03:47 16° 67° (ENE) 21:06:22 145.870
DOVE 4 04 Jul 21:02:39 21:07:32 72° 259° (WSW) 21:12:09 437.250
Oscar 11 04 Jul 21:05:47 21:09:24 27° 70° (ENE) 21:13:05 145.826/435.025
COMPASS 1 04 Jul 21:12:18 21:16:26 85° 81° (E) 21:20:38 437.405
PRISM 04 Jul 21:23:08 21:25:57 17° 294° (WNW) 21:28:36 437.425
CUTE 1.7 + AOD 2 04 Jul 21:23:35 21:27:37 45° 261° (W) 21:31:41 437.475
CANX-2 04 Jul 21:27:10 21:31:04 37° 263° (W) 21:35:00 2200.000
FUNcube-1 04 Jul 21:33:37 21:37:17 30° 71° (ENE) 21:40:58 145.935
CINEMA 3 04 Jul 21:46:30 21:50:55 51° 260° (W) 21:55:10 145.822/145.860
UWE-3 04 Jul 21:46:31 21:50:41 58° 75° (ENE) 21:54:48 435.000/436.395/437.385
Cosmos 2499 04 Jul 21:46:55 21:54:24 47° 75° (ENE) 22:02:29 435.465 / 435.565
GONETS M04 04 Jul 21:50:24 21:58:27 43° 272° (W) 22:06:21
AUBIESAT-1 04 Jul 21:51:54 21:56:07 60° 106° (ESE) 22:00:37 437.475
GOMX 1 04 Jul 22:00:39 22:03:20 14° 271° (W) 22:05:42 467.674
VELOX 1 04 Jul 22:11:17 22:14:16 18° 66° (ENE) 22:17:24 145.980
SEEDS 04 Jul 22:13:00 22:15:44 16° 269° (W) 22:18:21 437.485
DX 1 04 Jul 22:18:09 22:22:12 38° 71° (ENE) 22:26:17 434.975-435.025
AAUSAT CUBESAT 2 04 Jul 22:22:55 22:25:52 18° 268° (W) 22:28:43 437.432
M-CUBED/EXP-1 PRIME 04 Jul 22:26:39 22:30:45 50° 291° (WNW) 22:35:07 437.505
HO-68 04 Jul 22:27:04 22:32:15 20° 270° (W) 22:37:08 435.675
CUBEBUG 2 04 Jul 22:33:03 22:36:57 32° 264° (W) 22:40:45 437.445
ZACube-1 04 Jul 22:33:19 22:37:27 52° 260° (W) 22:41:31 437.345
DELFI C3 04 Jul 22:34:48 22:38:35 39° 262° (W) 22:42:23 145.870
50 SAT 04 Jul 22:38:05 22:41:32 34° 72° (ENE) 22:45:03 437.505
UKube-1 04 Jul 22:38:15 22:42:31 58° 74° (ENE) 22:46:48 .
Oscar 11 04 Jul 22:41:56 22:45:34 25° 266° (W) 22:49:07 145.826/435.025
HUMSAT D 04 Jul 22:48:57 22:53:04 84° 258° (WSW) 22:57:10 437.325/437.525
ANTELSAT 04 Jul 22:56:55 23:00:33 25° 95° (E) 23:04:18 437.575/2403.000
AISAT 04 Jul 22:56:55 23:01:18 56° 73° (ENE) 23:05:42 437.250
PCSat 04 Jul 23:08:38 23:09:11 10° 33° (NNE) 23:09:58 145.827
TIGRISAT 04 Jul 23:08:52 23:12:48 32° 96° (E) 23:16:50 435.000
NANOSAT C BR1 04 Jul 23:09:59 23:11:53 13° 90° (E) 23:13:58 145.865
FUNcube-1 04 Jul 23:10:24 23:13:41 21° 267° (W) 23:16:50 145.935
CUBEBUG 1 04 Jul 23:13:43 23:17:54 44° 73° (ENE) 23:22:09 437.445
DUCHIFAT 1 04 Jul 23:16:23 23:18:46 15° 91° (E) 23:21:19 145.980
POLYITAN 1 04 Jul 23:21:33 23:24:28 19° 92° (E) 23:27:30 437.675
TISAT 1 04 Jul 23:22:19 23:22:48 10° 63° (ENE) 23:23:32 437.305
UWE-3 04 Jul 23:26:06 23:27:39 11° 271° (W) 23:28:57 435.000/436.395/437.385
AUBIESAT-1 04 Jul 23:28:04 23:30:32 15° 299° (WNW) 23:32:55 437.475
ESTCUBE 1 04 Jul 23:30:17 23:34:49 80° 75° (ENE) 23:39:23 437.505/2401.250
BUGSAT 1 04 Jul 23:31:49 23:33:54 14° 90° (E) 23:36:09 437.445
Cosmos 2499 04 Jul 23:40:22 23:47:26 36° 272° (W) 23:54:47 435.465 / 435.565
VELOX 1 04 Jul 23:46:15 23:50:32 44° 261° (W) 23:54:49 145.980
UNISAT 6 04 Jul 23:48:28 23:52:52 87° 291° (WNW) 23:57:22 437.425
QB50P2 04 Jul 23:50:25 23:54:23 39° 98° (E) 23:58:21 145.880/145.840
POPSAT HIP 1 04 Jul 23:51:03 23:54:59 38° 98° (E) 23:58:56 437.405
DX 1 04 Jul 23:55:23 23:58:37 19° 267° (W) 00:01:43 434.975-435.025
50 SAT 05 Jul 00:13:49 00:16:19 16° 268° (W) 00:18:41 437.505
SPROUT 05 Jul 00:14:01 00:18:14 57° 74° (ENE) 00:22:28 437.525
UKube-1 05 Jul 00:17:07 00:19:05 12° 271° (W) 00:20:50 .
QB50P1 05 Jul 00:29:52 00:34:04 74° 285° (WNW) 00:38:15 145.935-145.965
ANTELSAT 05 Jul 00:33:30 00:37:20 29° 290° (WNW) 00:41:10 437.575/2403.000
AISAT 05 Jul 00:35:57 00:38:18 14° 270° (W) 00:40:25 437.250
NANOSAT C BR1 05 Jul 00:44:00 00:48:05 51° 286° (WNW) 00:52:09 145.865
TIGRISAT 05 Jul 00:45:56 00:49:25 23° 292° (WNW) 00:52:52 435.000
RS-15 05 Jul 00:47:12 00:53:23 18° 101° (E) 01:00:25 29.354- 29.394
PCSat 05 Jul 00:48:46 00:54:03 50° 55° (NE) 00:59:18 145.827
DUCHIFAT 1 05 Jul 00:50:51 00:54:51 43° 287° (WNW) 00:58:49 145.980
CUBEBUG 1 05 Jul 00:51:33 00:54:32 17° 269° (W) 00:57:21 437.445
TISAT 1 05 Jul 00:53:47 00:58:02 76° 259° (WSW) 01:02:17 437.305
POLYITAN 1 05 Jul 00:56:39 01:00:32 36° 289° (WNW) 01:04:22 437.675
BUGSAT 1 05 Jul 01:05:48 01:09:40 43° 287° (WNW) 01:13:29 437.445
SO-50 05 Jul 01:10:43 01:15:14 34° 48° (NE) 01:19:42 436.795
QB50P2 05 Jul 01:27:05 01:30:01 18° 293° (WNW) 01:32:48 145.880/145.840
POPSAT HIP 1 05 Jul 01:27:40 01:30:37 18° 293° (WNW) 01:33:25 437.405
BEESAT 05 Jul 01:32:29 01:37:00 45° 71° (ENE) 01:41:35 436.000
Oscar 19 05 Jul 01:34:42 01:38:20 20° 91° (E) 01:42:08 437.125/150
SWISSCUBE 05 Jul 01:47:54 01:52:39 71° 75° (ENE) 01:57:28 437.505
Cosmos 2491 05 Jul 01:48:27 01:56:09 34° 69° (ENE) 02:03:56 435.465 / 435.565
SPROUT 05 Jul 01:52:49 01:54:44 12° 271° (W) 01:56:27 437.525
ITUPSAT 1 05 Jul 01:53:27 01:58:14 73° 74° (ENE) 02:03:02 437.325
YUBILEINY 05 Jul 02:24:06 02:30:12 23° 82° (E) 02:36:41 435.215
PCSat 05 Jul 02:32:54 02:37:10 23° 252° (WSW) 02:41:17 145.827
KKS-1 05 Jul 02:38:19 02:42:23 36° 71° (ENE) 02:46:29 437.445
AIST 1 05 Jul 02:50:25 02:54:39 48° 78° (ENE) 02:58:51
SO-50 05 Jul 02:51:19 02:55:46 33° 245° (WSW) 03:00:05 436.795
RS-15 05 Jul 02:53:19 03:04:10 82° 120° (ESE) 03:15:27 29.354- 29.394
BEESAT 05 Jul 03:11:41 03:15:07 19° 268° (W) 03:18:25 436.000
Oscar 19 05 Jul 03:13:05 03:18:00 48° 289° (WNW) 03:22:55 437.125/150
Gurwin Techsat 1B 05 Jul 03:22:55 03:28:13 62° 101° (E) 03:33:29 435.225
ITAMSAT 1 05 Jul 03:25:41 03:30:52 62° 101° (E) 03:36:01 435.822/435.867
STARS 05 Jul 03:28:32 03:32:56 78° 74° (ENE) 03:37:20 437.465
SWISSCUBE 05 Jul 03:29:12 03:31:07 12° 272° (W) 03:32:45 437.505
ITUPSAT 1 05 Jul 03:34:56 03:36:44 12° 272° (W) 03:38:15 437.325
Cosmos 2491 05 Jul 03:45:00 03:53:25 53° 270° (W) 04:01:42 435.465 / 435.565
JAS-2 05 Jul 04:14:55 04:21:29 56° 100° (E) 04:28:48 435.910
KKS-1 05 Jul 04:15:45 04:19:09 21° 267° (W) 04:22:26 437.445
YUBILEINY 05 Jul 04:17:34 04:26:15 74° 280° (W) 04:34:58 435.215
AIST 1 05 Jul 04:29:37 04:31:54 14° 274° (W) 04:33:58
MOZHAYETS 4 05 Jul 04:36:07 04:40:38 65° 75° (ENE) 04:45:13
AO-7 05 Jul 04:42:46 04:50:48 49° 100° (E) 04:58:50 29.400- 29.500
Gurwin Techsat 1B 05 Jul 05:04:08 05:07:45 18° 297° (WNW) 05:11:10 435.225
ITAMSAT 1 05 Jul 05:06:27 05:09:55 18° 297° (WNW) 05:13:12 435.822/435.867
HORYU 2 05 Jul 05:06:41 05:11:11 84° 284° (WNW) 05:15:39 437.375
CUBESAT XI-V 05 Jul 05:07:27 05:09:26 13° 63° (ENE) 05:11:38 437.345
RS-15 05 Jul 05:08:07 05:17:59 35° 327° (NNW) 05:28:03 29.354- 29.394
Cosmos 2504 05 Jul 05:42:18 05:48:46 44° 90° (E) 05:55:16 435.465 / 435.565
JAS-2 05 Jul 06:00:44 06:06:19 29° 294° (WNW) 06:12:14 435.910
CUTE-I 05 Jul 06:07:48 06:10:18 14° 88° (E) 06:13:06 437.470
MOZHAYETS 4 05 Jul 06:16:30 06:18:25 12° 272° (W) 06:20:03
STRAND 1 05 Jul 06:17:12 06:21:20 26° 66° (ENE) 06:25:34 437.568
YUBILEINY 05 Jul 06:20:18 06:25:02 15° 304° (NW) 06:29:13 435.215
AO-7 05 Jul 06:35:51 06:43:28 40° 299° (WNW) 06:50:57 29.400- 29.500
PRISM 05 Jul 06:36:49 06:40:28 31° 70° (ENE) 06:44:12 437.425
Cubesat XI-IV 05 Jul 06:40:39 06:45:14 29° 94° (E) 06:49:53 437.490
CUBESAT XI-V 05 Jul 06:41:37 06:46:19 73° 259° (WSW) 06:51:05 437.345
VERMONT LUNAR 05 Jul 06:48:56 06:50:41 14° 150° (SSE) 06:52:29 437.305
BEESAT 3 05 Jul 06:55:42 06:59:16 31° 115° (ESE) 07:02:56 437.485
O/OREOS (USA 219) 05 Jul 06:56:48 07:00:19 24° 103° (ESE) 07:03:55 437.305
BEESAT 2 05 Jul 07:08:53 07:12:34 34° 116° (ESE) 07:16:20 435.950
DANDE 05 Jul 07:17:54 07:22:48 21° 93° (E) 07:27:09 436.750
RS-15 05 Jul 07:27:09 07:35:08 21° 0° (N) 07:43:23 29.354- 29.394
Cosmos 2504 05 Jul 07:35:11 07:41:12 30° 290° (WNW) 07:47:07 435.465 / 435.565
M-CUBED/EXP-1 PRIME 05 Jul 07:42:24 07:44:22 15° 61° (ENE) 07:46:28 437.505
CUTE-I 05 Jul 07:45:41 07:51:03 74° 287° (WNW) 07:56:23 437.470
CUSAT 1 05 Jul 07:49:50 07:56:03 49° 98° (E) 08:00:51 437.405
STRAND 1 05 Jul 07:55:32 08:00:21 40° 262° (W) 08:05:11 437.568
ISS 05 Jul 08:02:38 08:05:45 47° 139° (SE) 08:08:54 145.825
HO-68 05 Jul 08:07:33 08:10:01 12° 85° (E) 08:13:01 435.675
PRISM 05 Jul 08:12:41 08:15:58 22° 266° (W) 08:19:11 437.425
Cubesat XI-IV 05 Jul 08:20:30 08:25:25 36° 292° (WNW) 08:30:15 437.490
GOMX 1 05 Jul 08:23:07 08:25:40 16° 91° (E) 08:28:21 467.674
VERMONT LUNAR 05 Jul 08:24:10 08:27:12 50° 164° (SSE) 08:30:14 437.305
AIST 2 05 Jul 08:32:17 08:36:29 66° 120° (ESE) 08:40:45 435.215
BEESAT 3 05 Jul 08:33:46 08:37:15 26° 313° (NW) 08:40:43 437.485
O/OREOS (USA 219) 05 Jul 08:35:34 08:39:36 32° 300° (WNW) 08:43:37 437.305
AUBIESAT-1 05 Jul 08:40:23 08:43:41 72° 71° (ENE) 08:47:09 437.475
